| time (UTC) | temp F | wind direction | speed knots | gust knots | rain 1hr in | rain 24hr in | rain mn in | humidity % | barometer mb |
| 20260506134601 | 74 | 145 | 0.9 | 3.5 | 0.00 | 0.00 | 0.00 | 92 | 1010.6 |
| 20260506133057 | 74 | 132 | 2.6 | 7.0 | 0.00 | 0.00 | 0.00 | 93 | 1010.3 |
| 20260506131551 | 74 | 127 | 3.5 | 6.1 | 0.00 | 0.00 | 0.00 | 93 | 1010.1 |
| 20260506130057 | 74 | 135 | 4.3 | 7.8 | 0.00 | 0.00 | 0.00 | 93 | 1010.1 |
| 20260506124553 | 73 | 111 | 5.2 | 7.8 | 0.00 | 0.00 | 0.00 | 93 | 1009.9 |
| 20260506123027 | 73 | 90 | 4.3 | 7.0 | 0.00 | 0.00 | 0.00 | 93 | 1009.8 |
| 20260506121530 | 74 | 114 | 6.1 | 9.6 | 0.00 | 0.00 | 0.00 | 93 | 1009.6 |
| 20260506120027 | 74 | 111 | 6.1 | 10.4 | 0.00 | 0.00 | 0.00 | 92 | 1009.4 |
| 20260506114533 | 74 | 123 | 6.1 | 9.6 | 0.00 | 0.00 | 0.00 | 92 | 1009.3 |
| 20260506113028 | 74 | 129 | 7.8 | 10.4 | 0.00 | 0.00 | 0.00 | 91 | 1009.2 |
| 20260506111525 | 74 | 97 | 7.8 | 11.3 | 0.00 | 0.00 | 0.00 | 91 | 1009.4 |
| 20260506110031 | 74 | 126 | 7.8 | 13.0 | 0.00 | 0.00 | 0.00 | 90 | 1009.3 |
| 20260506104525 | 74 | 113 | 8.7 | 13.0 | 0.00 | 0.00 | 0.00 | 91 | 1009.3 |
| 20260506103029 | 74 | 111 | 6.1 | 12.2 | 0.00 | 0.00 | 0.00 | 91 | 1009.2 |
| 20260506101529 | 75 | 96 | 7.8 | 11.3 | 0.00 | 0.00 | 0.00 | 91 | 1009.1 |
| 20260506100025 | 75 | 109 | 6.1 | 11.3 | 0.00 | 0.00 | 0.00 | 90 | 1009.1 |
| 20260506094527 | 75 | 114 | 7.8 | 11.3 | 0.00 | 0.00 | 0.00 | 90 | 1008.9 |
| 20260506093030 | 75 | 100 | 9.6 | 12.2 | 0.00 | 0.00 | 0.00 | 90 | 1008.9 |
| 20260506091528 | 75 | 94 | 9.6 | 13.9 | 0.00 | 0.00 | 0.00 | 90 | 1008.9 |
| 20260506090027 | 75 | 99 | 10.4 | 14.8 | 0.00 | 0.00 | 0.00 | 90 | 1008.6 |
| 20260506084526 | 75 | 80 | 10.4 | 14.8 | 0.00 | 0.00 | 0.00 | 90 | 1008.7 |
| 20260506083027 | 75 | 107 | 8.7 | 13.0 | 0.00 | 0.00 | 0.00 | 90 | 1008.6 |
| 20260506081528 | 75 | 89 | 9.6 | 15.6 | 0.00 | 0.00 | 0.00 | 90 | 1008.6 |
| 20260506073025 | 75 | 100 | 11.3 | 14.8 | 0.00 | 0.00 | 0.00 | 89 | 1008.8 |
| 20260506071532 | 76 | 103 | 8.7 | 14.8 | 0.00 | 0.00 | 0.00 | 88 | 1008.9 |
| 20260506061533 | 76 | 85 | 8.7 | 15.6 | 0.00 | 0.00 | 0.00 | 86 | 1008.7 |
| 20260506044533 | 79 | 101 | 9.6 | 14.8 | 0.00 | 0.00 | 0.00 | 80 | 1008.7 |
| 20260506043027 | 79 | 82 | 11.3 | 15.6 | 0.00 | 0.00 | 0.00 | 79 | 1008.6 |
| 20260506041529 | 78 | 94 | 8.7 | 12.2 | 0.00 | 0.00 | 0.00 | 80 | 1008.4 |
| 20260506040050 | 78 | 74 | 9.6 | 13.0 | 0.00 | 0.00 | 0.00 | 80 | 1008.0 |
| 20260506034528 | 78 | 107 | 9.6 | 12.2 | 0.00 | 0.00 | 0.00 | 80 | 1007.9 |
| 20260506033026 | 78 | 92 | 8.7 | 12.2 | 0.00 | 0.00 | 0.00 | 80 | 1007.8 |
| 20260506031541 | 78 | 85 | 9.6 | 12.2 | 0.00 | 0.00 | 0.00 | 80 | 1007.6 |
| 20260506030028 | 78 | 89 | 8.7 | 10.4 | 0.00 | 0.00 | 0.00 | 80 | 1007.4 |
| 20260506024529 | 79 | 82 | 6.1 | 7.8 | 0.00 | 0.00 | 0.00 | 78 | 1007.3 |
| 20260506023027 | 79 | 69 | 6.1 | 8.7 | 0.00 | 0.00 | 0.00 | 77 | 1007.2 |
| 20260506021528 | 80 | 73 | 7.0 | 8.7 | 0.00 | 0.00 | 0.00 | 75 | 1007.2 |
| 20260506020029 | 81 | 66 | 7.0 | 9.6 | 0.00 | 0.00 | 0.00 | 75 | 1007.1 |
| 20260506014532 | 81 | 79 | 7.0 | 8.7 | 0.00 | 0.00 | 0.00 | 74 | 1007.0 |
| 20260506013029 | 82 | 71 | 6.1 | 7.8 | 0.00 | 0.00 | 0.00 | 72 | 1007.0 |
| 20260506011530 | 83 | 70 | 4.3 | 7.8 | 0.00 | 0.00 | 0.00 | 69 | 1006.8 |
| 20260506010027 | 85 | 76 | 6.1 | 9.6 | 0.00 | 0.00 | 0.00 | 66 | 1006.6 |
| 20260506004528 | 86 | 69 | 5.2 | 8.7 | 0.00 | 0.00 | 0.00 | 65 | 1006.7 |
| 20260506003028 | 86 | 58 | 7.8 | 11.3 | 0.00 | 0.00 | 0.00 | 62 | 1006.5 |
| 20260506001531 | 87 | 59 | 3.5 | 6.1 | 0.00 | 0.00 | 0.00 | 60 | 1006.4 |
| 20260506000032 | 87 | 51 | 3.5 | 6.1 | 0.00 | 0.00 | 0.00 | 59 | 1006.5 |
| 20260505234529 | 87 | 55 | 3.5 | 6.1 | 0.00 | 0.00 | 0.00 | 58 | 1006.5 |
| 20260505233029 | 87 | 78 | 2.6 | 7.8 | 0.00 | 0.00 | 0.00 | 58 | 1006.5 |
| 20260505231541 | 88 | 74 | 5.2 | 8.7 | 0.00 | 0.00 | 0.00 | 59 | 1006.5 |
| 20260505230033 | 87 | 61 | 3.5 | 8.7 | 0.00 | 0.00 | 0.00 | 60 | 1006.6 |
| 20260505224530 | 88 | 89 | 7.0 | 12.2 | 0.00 | 0.00 | 0.00 | 60 | 1006.4 |
| 20260505223032 | 87 | 65 | 4.3 | 7.8 | 0.00 | 0.00 | 0.00 | 61 | 1006.6 |
| 20260505221530 | 87 | 88 | 4.3 | 10.4 | 0.00 | 0.00 | 0.00 | 61 | 1006.6 |
| 20260505220035 | 87 | 67 | 4.3 | 7.0 | 0.00 | 0.00 | 0.00 | 61 | 1006.9 |
| 20260505214535 | 87 | 92 | 6.1 | 8.7 | 0.00 | 0.00 | 0.00 | 61 | 1007.0 |
| 20260505213033 | 87 | 136 | 1.7 | 7.8 | 0.00 | 0.00 | 0.00 | 62 | 1007.2 |
| 20260505211528 | 86 | 85 | 5.2 | 7.8 | 0.00 | 0.00 | 0.00 | 61 | 1007.5 |
| 20260505210030 | 86 | 234 | 0.0 | 5.2 | 0.00 | 0.00 | 0.00 | 63 | 1007.8 |
| 20260505204534 | 86 | 57 | 3.5 | 8.7 | 0.00 | 0.00 | 0.00 | 63 | 1008.0 |
| 20260505203031 | 85 | 140 | 0.9 | 6.1 | 0.00 | 0.00 | 0.00 | 64 | 1007.9 |
| 20260505201528 | 85 | 50 | 1.7 | 5.2 | 0.00 | 0.00 | 0.00 | 65 | 1008.3 |
| 20260505200039 | 85 | 105 | 3.5 | 7.8 | 0.00 | 0.00 | 0.00 | 65 | 1008.4 |
| 20260505194528 | 84 | 12 | 1.7 | 6.1 | 0.00 | 0.00 | 0.00 | 66 | 1008.5 |
| 20260505193030 | 84 | 283 | 1.7 | 7.0 | 0.00 | 0.00 | 0.00 | 66 | 1008.7 |
| 20260505191534 | 84 | 139 | 2.6 | 7.0 | 0.00 | 0.00 | 0.00 | 68 | 1008.9 |
| 20260505190036 | 83 | 166 | 4.3 | 7.0 | 0.00 | 0.00 | 0.00 | 66 | 1009.1 |
| 20260505184532 | 82 | 38 | 3.5 | 7.8 | 0.00 | 0.00 | 0.00 | 71 | 1009.1 |
| 20260505183039 | 82 | 86 | 2.6 | 6.1 | 0.00 | 0.00 | 0.00 | 72 | 1009.3 |
| 20260505181533 | 80 | 182 | 2.6 | 7.8 | 0.00 | 0.00 | 0.00 | 73 | 1009.8 |
| 20260505180037 | 80 | 180 | 1.7 | 5.2 | 0.00 | 0.00 | 0.00 | 76 | 1009.8 |
| 20260505174541 | 79 | 155 | 2.6 | 7.0 | 0.00 | 0.00 | 0.00 | 75 | 1010.1 |
| 20260505173036 | 77 | 46 | 0.9 | 5.2 | 0.00 | 0.00 | 0.00 | 77 | 1010.2 |
| 20260505171536 | 78 | 135 | 1.7 | 4.3 | 0.00 | 0.00 | 0.00 | 78 | 1010.2 |
| 20260505170034 | 77 | 99 | 0.0 | 5.2 | 0.00 | 0.00 | 0.00 | 80 | 1010.4 |
| 20260505164533 | 75 | 154 | 0.9 | 5.2 | 0.00 | 0.00 | 0.00 | 82 | 1010.2 |
| 20260505163036 | 75 | 142 | 1.7 | 6.1 | 0.00 | 0.00 | 0.00 | 83 | 1010.3 |
| 20260505161537 | 74 | 131 | 0.9 | 4.3 | 0.00 | 0.00 | 0.00 | 86 | 1010.1 |
| 20260505153033 | 73 | 160 | 4.3 | 7.8 | 0.00 | 0.00 | 0.00 | 85 | 1009.9 |
| 20260505151532 | 73 | 126 | 1.7 | 7.0 | 0.00 | 0.00 | 0.00 | 87 | 1010.0 |